{"data":{"norad_id":67251,"intl_designator":"2025-313D","name":"2025-313D","alt_names":[],"object_type":"PAYLOAD","status":"ACTIVE","operator":null,"country":"TBD","launch_date":"2025-12-28","launch_site_code":"VOSTO","launch_vehicle":null,"mission":null,"orbit_class":"UNKNOWN","rcs_meters":null,"size_class":null,"mass_kg":null,"dimensions":null,"purposes":[],"wikipedia_slug":null,"has_3d_model":false,"image_url":null,"decayed_at":null,"tle_current":{"epoch":"2026-05-25T02:29:23.937792Z","epoch_age_seconds":69607,"freshness":"FRESH","line1":"1 67251U 25313D   26145.10374928  .00001923  00000+0  16853-3 0  9997","line2":"2 67251  97.5692 216.4063 0150001  44.3310 316.9805 14.89532396 21965","mean_motion":14.89532396,"eccentricity":0.0150001,"inclination_deg":97.5692,"raan_deg":216.4063,"arg_perigee_deg":44.331,"mean_anomaly_deg":316.9805,"bstar":0.00016853,"rev_number":2196,"period_min":96.674634527385,"perigee_km":494.73188622872,"apogee_km":704.05925891236,"semimajor_km":6977.5325725705,"source":"CELESTRAK","updated_at":"2026-05-25T13:38:06.844491Z"}}}